Regional Weather Roundup
Issued by NWS Charleston, WV

Home | Current Version | Previous Version | Text Only | Print | Product List | Glossary Off
Versions: 1 2 3 4 5 6 7 8 9 10 11 12 13 14 15 16 17 18 19 20 21 22 23 24 25 26 27

000
ASUS41 KRLX 181110
RWRRLX
West Virginia Regional Weather Roundup
National Weather Service Charleston WV
700 AM EDT FRI AUG 18 2017

Note: "fair" indicates few or no clouds below 12,000 feet with no
significant weather and/or obstructions to visibility.

WVZ003-181200-
Northern Panhandle of West Virginia

CITY           SKY/WX    TMP DP  RH WIND       PRES   REMARKS
WHEELING       LGT RAIN  71  70  96 S5        29.86S
$$

WVZ009-181200-
Northwest West Virginia

CITY           SKY/WX    TMP DP  RH WIND       PRES   REMARKS
PARKERSBURG    HVY RAIN  73  71  93 SW7       29.89S VSB 3/4
$$

WVZ006-181200-
Western West Virginia

CITY           SKY/WX    TMP DP  RH WIND       PRES   REMARKS
HUNTINGTON     LGT RAIN  73  71  93 SW5       29.89S
$$

WVZ015-181200-
West Central West Virginia

CITY           SKY/WX    TMP DP  RH WIND       PRES   REMARKS
CHARLESTON     LGT RAIN  74  71  91 CALM      29.91R FOG
$$

WVZ022-031-181200-
North Central West Virginia

CITY           SKY/WX    TMP DP  RH WIND       PRES   REMARKS
CLARKSBURG     CLOUDY    73  70  90 S6        29.89R
MORGANTOWN     RAIN      73  70  90 SW5       29.89S FOG
$$

WVZ025-035-042-045-181200-
Southern West Virginia

CITY           SKY/WX    TMP DP  RH WIND       PRES   REMARKS
BECKLEY        PTCLDY    71  68  90 SW8       30.02R
LOGAN          CLOUDY    73  72  94 VRB3      29.96R
BLUEFIELD      CLEAR     68  65  90 SW12      30.06R
LEWISBURG      CLOUDY    64  64  99 CALM      30.03R FOG
$$

WVZ047-181200-
Northern Mountains of West Virginia

CITY           SKY/WX    TMP DP  RH WIND       PRES   REMARKS
ELKINS         CLOUDY    67  64  90 CALM      29.96S
$$

WVZ052-181200-
Eastern Panhandle of West Virginia

CITY           SKY/WX    TMP DP  RH WIND       PRES   REMARKS
MARTINSBURG    PTCLDY    72  71  97 S5        29.86R FOG
PETERSBURG     PTCLDY    69  69  99 CALM      29.90R FOG
$$




USA.gov is the U.S. government's official web portal to all federal, state and local government web resources and services.